Saginaw, MI

1:44 AM EDT on June 23, 2017 (GMT -0400)
MBS International

Weather History for KMBS - July, 2012

Change the Weather History Date:

Wednesday, July 25, 2012

  Actual Average Record
Temperature  
Mean Temperature 74 °F 71 °F  
Max Temperature 88 °F 82 °F 88 °F (2012)
Min Temperature 60 °F 60 °F 51 °F (2013)
Degree Days  
Heating Degree Days 0    
Month to date heating degree days  
Since 1 June heating degree days  
Since 1 July heating degree days  
Cooling Degree Days 9    
Month to date cooling degree days  
Year to date cooling degree days  
Since 1 June cooling degree days  
Growing Degree Days 24 (Base 50)    
Moisture  
Dew Point 57 °F    
Average Humidity 55    
Maximum Humidity 79    
Minimum Humidity 40    
Precipitation  
Precipitation 0.00 in 0.09 in 0.22 in (2015)
Month to date precipitation 2.06  
Year to date precipitation 16.69  
Snow  
Snow 0.00 in - - ()
Month to date snowfall  
Since 1 June snowfall  
Since 1 July snowfall  
Snow Depth -    
Sea Level Pressure  
Sea Level Pressure 29.81 in    
Wind  
Wind Speed 8 mph (South)    
Max Wind Speed 28 mph    
Max Gust Speed 39 mph    
Visibility 10 miles    
Events      
T = Trace of Precipitation, MM = Missing Value Source: NWS Daily Summary

Daily Weather History Graph

Daily Weather History Graph

Search for Another Location

Airport or City:

Trip Planner

Search our weather history database for the weather conditions in past years. The results will help you decide how hot, cold, wet, or windy it might be!

Date:

Astronomy

Jul. 25, 2012 Rise Set
Actual Time 6:18 AM EDT 9:06 PM EDT
Civil Twilight 5:45 AM EDT 9:39 PM EDT
Nautical Twilight 5:03 AM EDT 10:21 PM EDT
Astronomical Twilight 4:14 AM EDT 11:09 PM EDT
Moon 1:38 PM EDT (7/25) No Moon Set
Length of Visible Light 15h 53m
Length of Day
14h 47m
Waxing Crescent, 42% of the Moon is Illuminated
Jul 25
Waxing Crescent
Jul 26
First Quarter
Aug 1
Full
Aug 9
Last Quarter
Aug 17
New

Hourly Weather History & Observations

Time (EDT) Temp. Heat Index Dew Point Humidity Pressure Visibility Wind Dir Wind Speed Gust Speed Precip Events Conditions
12:53 AM 64.9 °F - 50.0 °F 58% 30.00 in 10.0 mi SSE 4.6 mph - N/A   Clear
1:53 AM 64.9 °F - 50.0 °F 58% 29.99 in 10.0 mi South 3.5 mph - N/A   Clear
2:53 AM 62.1 °F - 50.0 °F 65% 29.99 in 10.0 mi SSE 3.5 mph - N/A   Clear
3:53 AM 61.0 °F - 50.0 °F 67% 29.98 in 10.0 mi SSE 4.6 mph - N/A   Clear
4:53 AM 60.1 °F - 50.0 °F 69% 29.97 in 10.0 mi Calm Calm - N/A   Clear
5:53 AM 60.1 °F - 50.0 °F 69% 29.96 in 10.0 mi SSE 4.6 mph - N/A   Clear
6:53 AM 61.0 °F - 50.0 °F 67% 29.96 in 10.0 mi South 3.5 mph - N/A   Clear
7:53 AM 64.9 °F - 52.0 °F 63% 29.96 in 10.0 mi South 4.6 mph - N/A   Clear
8:53 AM 66.0 °F - 52.0 °F 60% 29.96 in 10.0 mi SSW 4.6 mph - N/A   Clear
9:53 AM 70.0 °F - 53.1 °F 55% 29.94 in 10.0 mi South 9.2 mph - N/A   Scattered Clouds
10:53 AM 73.0 °F - 54.0 °F 51% 29.94 in 10.0 mi South 12.7 mph 21.9 mph N/A   Scattered Clouds
11:53 AM 75.0 °F - 57.0 °F 53% 29.89 in 10.0 mi South 11.5 mph - 0.00 in   Clear
12:53 PM 80.1 °F 80.1 °F 55.0 °F 42% 29.86 in 10.0 mi SSW 13.8 mph - N/A   Clear
1:53 PM 82.9 °F 82.6 °F 57.9 °F 42% 29.81 in 10.0 mi South 13.8 mph 20.7 mph N/A   Partly Cloudy
2:53 PM 82.9 °F 82.6 °F 57.9 °F 42% 29.78 in 10.0 mi South 12.7 mph 20.7 mph N/A   Scattered Clouds
3:53 PM 86.0 °F 85.4 °F 59.0 °F 40% 29.72 in 10.0 mi South 18.4 mph 25.3 mph N/A   Clear
4:53 PM 86.0 °F 85.4 °F 59.0 °F 40% 29.70 in 10.0 mi SSW 16.1 mph - N/A   Clear
5:53 PM 88.0 °F 88.4 °F 62.1 °F 42% 29.67 in 10.0 mi SSW 16.1 mph 23.0 mph N/A   Clear
6:53 PM 88.0 °F 88.7 °F 63.0 °F 43% 29.64 in 10.0 mi SSW 11.5 mph 21.9 mph N/A   Clear
7:53 PM 86.0 °F 87.3 °F 64.0 °F 48% 29.62 in 10.0 mi SSW 9.2 mph - N/A   Clear
8:53 PM 84.9 °F 87.1 °F 66.0 °F 53% 29.60 in 10.0 mi SSW 9.2 mph - N/A   Clear
9:53 PM 84.0 °F 86.5 °F 66.9 °F 56% 29.57 in 10.0 mi SSW 11.5 mph - N/A   Partly Cloudy
10:53 PM 84.0 °F 87.0 °F 68.0 °F 58% 29.56 in 10.0 mi SSW 12.7 mph - N/A   Mostly Cloudy
11:30 PM 78.8 °F - 64.4 °F 61% 29.66 in 10.0 mi NNW 27.6 mph 39.1 mph N/A   Overcast
11:53 PM 73.0 °F - 66.0 °F 79% 29.63 in 10.0 mi North 17.3 mph 21.9 mph 0.00 in   Overcast